Change the Weather History Date:

Saturday, October 19, 2013

  Actual Average Record
Temperature  
Mean Temperature 40 °F -  
Max Temperature 46 °F 54 °F 84 °F (2000)
Min Temperature 33 °F 35 °F 22 °F (1992)
Degree Days  
Heating Degree Days 25    
Moisture  
Dew Point 35 °F    
Average Humidity 80    
Maximum Humidity 93    
Minimum Humidity 71    
Precipitation  
Precipitation 0.09 in - - ()
Sea Level Pressure  
Sea Level Pressure 29.74 in    
Wind  
Wind Speed 6 mph (West)    
Max Wind Speed 12 mph    
Max Gust Speed -    
Visibility 9 miles    
Events Rain    
Averages and records for this station are not official NWS values.
T = Trace of Precipitation, MM = Missing Value Source: NWS Daily Summary

Daily Weather History Graph

Daily Weather History Graph

Search for Another Location

Airport or City:

Trip Planner

Search our weather history database for the weather conditions in past years. The results will help you decide how hot, cold, wet, or windy it might be!

Date:

Astronomy

Oct. 19, 2013 Rise Set
Actual Time 7:34 AM CDT 6:21 PM CDT
Civil Twilight 7:04 AM CDT 6:50 PM CDT
Nautical Twilight 6:30 AM CDT 7:25 PM CDT
Astronomical Twilight 5:56 AM CDT 7:58 PM CDT
Moon 6:45 PM CDT (10/19) 8:15 AM CDT (10/19)
Length of Visible Light 11h 45m
Length of Day
10h 46m
Waxing Gibbous, 99% of the Moon is Illuminated
Oct 19
Waxing Gibbous
Oct 26
Last Quarter
Nov 3
New
Nov 9
First Quarter
Nov 17
Full

Hourly Weather History & Observations

Time (CDT) Temp. Windchill Dew Point Humidity Pressure Visibility Wind Dir Wind Speed Gust Speed Precip Events Conditions
12:53 AM 42.1 °F 39.2 °F 35.1 °F 76% 29.82 in 10.0 mi WSW 4.6 mph - N/A   Overcast
1:53 AM 39.9 °F 35.8 °F 34.0 °F 79% 29.81 in 10.0 mi SW 5.8 mph - N/A   Partly Cloudy
2:53 AM 39.0 °F 34.8 °F 34.0 °F 82% 29.80 in 10.0 mi WSW 5.8 mph - N/A   Clear
3:53 AM 37.9 °F 33.5 °F 34.0 °F 86% 29.77 in 10.0 mi SW 5.8 mph - N/A   Mostly Cloudy
4:53 AM 37.0 °F 33.3 °F 34.0 °F 89% 29.75 in 10.0 mi South 4.6 mph - N/A   Partly Cloudy
5:53 AM 37.0 °F 32.4 °F 34.0 °F 89% 29.74 in 10.0 mi South 5.8 mph - N/A   Mostly Cloudy
6:53 AM 37.0 °F 33.3 °F 33.1 °F 86% 29.73 in 10.0 mi SSW 4.6 mph - N/A   Mostly Cloudy
7:53 AM 39.0 °F 34.0 °F 33.1 °F 79% 29.73 in 9.0 mi SW 6.9 mph - 0.00 in Rain Light Rain
8:53 AM 37.9 °F 33.5 °F 35.1 °F 89% 29.72 in 10.0 mi SSE 5.8 mph - 0.01 in   Overcast
9:17 AM 39.2 °F 35.0 °F 35.6 °F 87% 29.70 in 10.0 mi South 5.8 mph - N/A   Overcast
9:28 AM 39.2 °F 35.0 °F 35.6 °F 87% 29.70 in 10.0 mi SSW 5.8 mph - N/A   Overcast
9:53 AM 39.9 °F 35.1 °F 36.0 °F 86% 29.72 in 10.0 mi Variable 6.9 mph - N/A   Overcast
10:53 AM 42.1 °F 36.6 °F 36.0 °F 79% 29.72 in 10.0 mi WSW 9.2 mph - N/A   Overcast
11:00 AM 42.8 °F 37.5 °F 37.4 °F 81% 29.70 in 10.0 mi WSW 9.2 mph - N/A   Overcast
11:33 AM 44.6 °F 39.7 °F 35.6 °F 71% 29.69 in 10.0 mi West 9.2 mph - N/A   Overcast
11:43 AM 44.6 °F 41.4 °F 35.6 °F 71% 29.69 in 10.0 mi Variable 5.8 mph - N/A   Overcast
11:53 AM 44.1 °F 40.1 °F 35.1 °F 71% 29.70 in 10.0 mi WNW 6.9 mph - N/A   Overcast
12:53 PM 44.1 °F 39.5 °F 37.0 °F 76% 29.70 in 9.0 mi NW 8.1 mph - 0.00 in Rain Light Rain
1:00 PM 44.6 °F 40.2 °F 35.6 °F 71% 29.68 in 10.0 mi NW 8.1 mph - 0.00 in Rain Light Rain
1:35 PM 42.8 °F 39.3 °F 35.6 °F 76% 29.68 in 2.5 mi WNW 5.8 mph - 0.01 in Rain Light Rain
1:38 PM 44.6 °F 41.4 °F 37.4 °F 76% 29.68 in 3.0 mi NW 5.8 mph - 0.01 in Rain Light Rain
1:45 PM 42.8 °F 39.3 °F 37.4 °F 81% 29.68 in 8.0 mi NNW 5.8 mph - 0.01 in Rain Light Rain
1:53 PM 42.1 °F 37.7 °F 36.0 °F 79% 29.70 in 5.0 mi NW 6.9 mph - 0.02 in Rain Rain
2:08 PM 39.2 °F 32.0 °F 37.4 °F 93% 29.69 in 3.0 mi NW 11.5 mph - 0.05 in Rain Rain
2:53 PM 42.1 °F 37.7 °F 37.0 °F 82% 29.72 in 10.0 mi WNW 6.9 mph - 0.06 in   Overcast
3:53 PM 44.1 °F 40.8 °F 36.0 °F 73% 29.73 in 10.0 mi WNW 5.8 mph - N/A   Mostly Cloudy
4:53 PM 43.0 °F 36.8 °F 36.0 °F 76% 29.74 in 10.0 mi West 11.5 mph - 0.00 in   Mostly Cloudy
5:53 PM 43.0 °F 37.7 °F 36.0 °F 76% 29.76 in 10.0 mi WNW 9.2 mph - N/A   Overcast
6:53 PM 41.0 °F 34.3 °F 33.1 °F 73% 29.78 in 10.0 mi WNW 11.5 mph - N/A   Mostly Cloudy
7:53 PM 39.9 °F 35.1 °F 33.1 °F 77% 29.80 in 10.0 mi West 6.9 mph - N/A   Clear
8:53 PM 37.9 °F 33.5 °F 32.0 °F 79% 29.81 in 10.0 mi West 5.8 mph - N/A   Clear
9:53 PM 36.0 °F 32.1 °F 30.9 °F 82% 29.81 in 10.0 mi WNW 4.6 mph - N/A   Clear
10:53 PM 36.0 °F 32.1 °F 30.0 °F 79% 29.82 in 10.0 mi WSW 4.6 mph - N/A   Clear
11:53 PM 33.1 °F - 28.9 °F 85% 29.81 in 10.0 mi Calm Calm - N/A   Clear